Regional Weather Roundup
Issued by NWS Little Rock, AR

Home | Current Version | Previous Version | Text Only | Print | Product List | Glossary On
Versions: 1 2 3 4 5 6 7 8 9 10 11 12 13 14 15 16 17 18 19 20 21 22 23 24 25 26 27 28 29 30 31 32 33 34 35 36 37 38 39 40 41 42 43 44 45 46 47 48 49 50
000
ASUS44 KLZK 280205
RWRLZK

WEATHER ROUNDUP FOR ARKANSAS
NATIONAL WEATHER SERVICE LITTLE ROCK AR
900 PM CDT THU AUG 27 2015

NOTE: "FAIR" INDICATES FEW OR NO CLOUDS BELOW 12,000 FEET WITH NO
SIGNIFICANT WEATHER AND/OR OBSTRUCTIONS TO VISIBILITY.

ARZ001-003-010-029-280300-
NORTHWEST ARKANSAS

CITY           SKY/WX    TMP DP  RH WIND       PRES   REMARKS
FAYETTEVILLE   MOCLDY    67  65  93 S7        30.06R
FORT SMITH     PTCLDY    74  64  71 NE3       30.02S
BENTONVILLE    PTCLDY    72  61  68 SW6       30.06R
ROGERS         CLEAR     71  65  81 SW7       30.07R
SILOAM SPGS    MOCLDY    70  59  68 S6        30.03F
HIGHFILL       PTCLDY    70  64  81 S7        30.05S
SPRINGDALE     CLEAR     72  64  78 S8        30.07S
$$

ARZ004-005-016-280300-
NORTH CENTRAL ARKANSAS

CITY           SKY/WX    TMP DP  RH WIND       PRES   REMARKS
BATESVILLE     CLOUDY    66  61  82 CALM      30.06S
FLIPPIN        PTCLDY    70  57  64 SE3       30.03R
MTN HOME       PTCLDY    68  60  75 SE5       30.04R
$$

ARZ040-041-280300-
WEST CENTRAL ARKANSAS

CITY           SKY/WX    TMP DP  RH WIND       PRES   REMARKS
MENA           CLEAR     72  68  88 CALM      30.06R
MOUNT IDA      CLEAR     69  65  86 CALM      30.04R
$$

ARZ009-017-025-026-028-280300-
NORTHEAST ARKANSAS

CITY           SKY/WX    TMP DP  RH WIND       PRES   REMARKS
JONESBORO      PTCLDY    63  61  93 N5        30.07R
NEWPORT        MOCLDY    69  65  87 NE3       30.07S
WALNUT RIDGE   PTCLDY    70  61  73 NE5       30.07R
BLYTHEVILLE    CLEAR     68  62  81 E3        30.06R
$$

ARZ022-023-033-042-044-280300-
CENTRAL ARKANSAS

CITY           SKY/WX    TMP DP  RH WIND       PRES   REMARKS
LITTLE ROCK    MOCLDY    71  60  68 E6        30.06R
N LITTLE ROCK  MOCLDY    71  62  73 E5        30.06R
JACKSONVILLE   PTCLDY    71  61  71 CALM      30.05S
SEARCY         CLOUDY    67  63  87 CALM      30.07R
HOT SPRINGS    PTCLDY    74  61  63 E6        30.06R
RUSSELLVILLE   PTCLDY    70  66  87 CALM      30.04R
$$

ARZ036-280300-
EAST ARKANSAS

CITY           SKY/WX    TMP DP  RH WIND       PRES   REMARKS
WEST MEMPHIS   CLEAR     67  62  84 CALM      30.04S
$$

ARZ050-053-066-070-073-280300-
SOUTHWEST ARKANSAS

CITY           SKY/WX    TMP DP  RH WIND       PRES   REMARKS
ARKADELPHIA    FAIR      71  67  87 CALM      30.04R
CAMDEN         CLEAR     70  61  73 E3        30.03R
TEXARKANA      CLEAR     74  65  73 CALM      30.03R
EL DORADO      PTCLDY    70  63  78 NE3       30.04R
DE QUEEN       CLEAR     71  66  84 E3        30.01R
$$

ARZ056-057-069-280300-
SOUTHEAST ARKANSAS

CITY           SKY/WX    TMP DP  RH WIND       PRES   REMARKS
PINE BLUFF     PTCLDY    70  61  73 N5        30.05R
STUTTGART      CLOUDY    70  61  73 N6        30.06R
MONTICELLO     PTCLDY    70  62  76 CALM      30.03S

$$




USA.gov is the U.S. government's official web portal to all federal, state and local government web resources and services.